owner,sensor,date,latitude,longitude,sea_surface_height_above_sea_level,qcFlag 
COMPS,ioos:station:USF.COMPS:FHP:1,2015-11-01T07:00:00Z,28.1530,-82.8010,0.763,1111122 
COMPS,ioos:station:USF.COMPS:FHP:1,2015-11-01T07:06:00Z,28.1530,-82.8010,0.758,1111122 
COMPS,ioos:station:USF.COMPS:FHP:1,2015-11-01T07:12:00Z,28.1530,-82.8010,0.747,1111122 
COMPS,ioos:station:USF.COMPS:FHP:1,2015-11-01T07:18:00Z,28.1530,-82.8010,0.744,1111122 
COMPS,ioos:station:USF.COMPS:FHP:1,2015-11-01T07:24:00Z,28.1530,-82.8010,0.737,1111122 
COMPS,ioos:station:USF.COMPS:FHP:1,2015-11-01T07:30:00Z,28.1530,-82.8010,0.728,1111122 
COMPS,ioos:station:USF.COMPS:FHP:1,2015-11-01T07:36:00Z,28.1530,-82.8010,0.716,1111122 
COMPS,ioos:station:USF.COMPS:FHP:1,2015-11-01T07:42:00Z,28.1530,-82.8010,0.706,1111122 
COMPS,ioos:station:USF.COMPS:FHP:1,2015-11-01T07:48:00Z,28.1530,-82.8010,0.694,1111122 
COMPS,ioos:station:USF.COMPS:FHP:1,2015-11-01T07:54:00Z,28.1530,-82.8010,0.683,1111122 
COMPS,ioos:station:USF.COMPS:FHP:1,2015-11-01T08:00:00Z,28.1530,-82.8010,0.675,1111122 
COMPS,ioos:station:USF.COMPS:FHP:1,2015-11-01T08:06:00Z,28.1530,-82.8010,0.662,1111122 
COMPS,ioos:station:USF.COMPS:FHP:1,2015-11-01T08:12:00Z,28.1530,-82.8010,0.655,1111122 
COMPS,ioos:station:USF.COMPS:FHP:1,2015-11-01T08:18:00Z,28.1530,-82.8010,0.641,1111122 
COMPS,ioos:station:USF.COMPS:FHP:1,2015-11-01T08:24:00Z,28.1530,-82.8010,0.632,1111122 
COMPS,ioos:station:USF.COMPS:FHP:1,2015-11-01T08:30:00Z,28.1530,-82.8010,0.615,1111122 
COMPS,ioos:station:USF.COMPS:FHP:1,2015-11-01T08:36:00Z,28.1530,-82.8010,0.61,1111122 
COMPS,ioos:station:USF.COMPS:FHP:1,2015-11-01T08:42:00Z,28.1530,-82.8010,0.595,1111122 
COMPS,ioos:station:USF.COMPS:FHP:1,2015-11-01T08:48:00Z,28.1530,-82.8010,0.581,1111122 
COMPS,ioos:station:USF.COMPS:FHP:1,2015-11-01T08:54:00Z,28.1530,-82.8010,0.568,1111122 
COMPS,ioos:station:USF.COMPS:FHP:1,2015-11-01T09:00:00Z,28.1530,-82.8010,0.552,1111122 
COMPS,ioos:station:USF.COMPS:FHP:1,2015-11-01T09:06:00Z,28.1530,-82.8010,0.544,1111122 
COMPS,ioos:station:USF.COMPS:FHP:1,2015-11-01T09:12:00Z,28.1530,-82.8010,0.532,1111122 
COMPS,ioos:station:USF.COMPS:FHP:1,2015-11-01T09:18:00Z,28.1530,-82.8010,0.525,1111122 
COMPS,ioos:station:USF.COMPS:FHP:1,2015-11-01T09:24:00Z,28.1530,-82.8010,0.511,1111122 
COMPS,ioos:station:USF.COMPS:FHP:1,2015-11-01T09:30:00Z,28.1530,-82.8010,0.493,1111122 
COMPS,ioos:station:USF.COMPS:FHP:1,2015-11-01T09:36:00Z,28.1530,-82.8010,0.477,1111122 
COMPS,ioos:station:USF.COMPS:FHP:1,2015-11-01T09:42:00Z,28.1530,-82.8010,0.465,1111122 
COMPS,ioos:station:USF.COMPS:FHP:1,2015-11-01T09:48:00Z,28.1530,-82.8010,0.448,1111122 
COMPS,ioos:station:USF.COMPS:FHP:1,2015-11-01T09:54:00Z,28.1530,-82.8010,0.436,1111122 
COMPS,ioos:station:USF.COMPS:FHP:1,2015-11-01T10:00:00Z,28.1530,-82.8010,0.418,1111122 
COMPS,ioos:station:USF.COMPS:FHP:1,2015-11-01T10:06:00Z,28.1530,-82.8010,0.402,1111122 
COMPS,ioos:station:USF.COMPS:FHP:1,2015-11-01T10:12:00Z,28.1530,-82.8010,0.387,1111122 
COMPS,ioos:station:USF.COMPS:FHP:1,2015-11-01T10:18:00Z,28.1530,-82.8010,0.375,1111122 
COMPS,ioos:station:USF.COMPS:FHP:1,2015-11-01T10:24:00Z,28.1530,-82.8010,0.356,1111122 
COMPS,ioos:station:USF.COMPS:FHP:1,2015-11-01T10:30:00Z,28.1530,-82.8010,0.345,1111122 
COMPS,ioos:station:USF.COMPS:FHP:1,2015-11-01T10:36:00Z,28.1530,-82.8010,0.332,1111122 
COMPS,ioos:station:USF.COMPS:FHP:1,2015-11-01T10:42:00Z,28.1530,-82.8010,0.319,1111122 
COMPS,ioos:station:USF.COMPS:FHP:1,2015-11-01T10:48:00Z,28.1530,-82.8010,0.307,1111122 
COMPS,ioos:station:USF.COMPS:FHP:1,2015-11-01T10:54:00Z,28.1530,-82.8010,0.294,1111122 
COMPS,ioos:station:USF.COMPS:FHP:1,2015-11-01T11:00:00Z,28.1530,-82.8010,0.284,1111122 
COMPS,ioos:station:USF.COMPS:FHP:1,2015-11-01T11:06:00Z,28.1530,-82.8010,0.261,1111122 
COMPS,ioos:station:USF.COMPS:FHP:1,2015-11-01T11:12:00Z,28.1530,-82.8010,0.247,1111122 
COMPS,ioos:station:USF.COMPS:FHP:1,2015-11-01T11:18:00Z,28.1530,-82.8010,0.232,1111122 
COMPS,ioos:station:USF.COMPS:FHP:1,2015-11-01T11:24:00Z,28.1530,-82.8010,0.209,1111122 
COMPS,ioos:station:USF.COMPS:FHP:1,2015-11-01T11:30:00Z,28.1530,-82.8010,0.196,1111122 
COMPS,ioos:station:USF.COMPS:FHP:1,2015-11-01T11:36:00Z,28.1530,-82.8010,0.18,1111122 
COMPS,ioos:station:USF.COMPS:FHP:1,2015-11-01T11:42:00Z,28.1530,-82.8010,0.162,1111122 
COMPS,ioos:station:USF.COMPS:FHP:1,2015-11-01T11:48:00Z,28.1530,-82.8010,0.144,1111122 
COMPS,ioos:station:USF.COMPS:FHP:1,2015-11-01T11:54:00Z,28.1530,-82.8010,0.127,1111122 
COMPS,ioos:station:USF.COMPS:FHP:1,2015-11-01T12:00:00Z,28.1530,-82.8010,0.112,1111122 
COMPS,ioos:station:USF.COMPS:FHP:1,2015-11-01T12:06:00Z,28.1530,-82.8010,0.094,1111122 
COMPS,ioos:station:USF.COMPS:FHP:1,2015-11-01T12:12:00Z,28.1530,-82.8010,0.084,1111122 
COMPS,ioos:station:USF.COMPS:FHP:1,2015-11-01T12:18:00Z,28.1530,-82.8010,0.066,1111122 
COMPS,ioos:station:USF.COMPS:FHP:1,2015-11-01T12:24:00Z,28.1530,-82.8010,0.051,1111122 
COMPS,ioos:station:USF.COMPS:FHP:1,2015-11-01T12:30:00Z,28.1530,-82.8010,0.039,1111122 
COMPS,ioos:station:USF.COMPS:FHP:1,2015-11-01T12:36:00Z,28.1530,-82.8010,0.023,1111122 
COMPS,ioos:station:USF.COMPS:FHP:1,2015-11-01T12:42:00Z,28.1530,-82.8010,0.011,1111122 
COMPS,ioos:station:USF.COMPS:FHP:1,2015-11-01T12:48:00Z,28.1530,-82.8010,0.0,1114422 
COMPS,ioos:station:USF.COMPS:FHP:1,2015-11-01T12:54:00Z,28.1530,-82.8010,-0.006,1111122 
COMPS,ioos:station:USF.COMPS:FHP:1,2015-11-01T13:00:00Z,28.1530,-82.8010,-0.023,1111122 
COMPS,ioos:station:USF.COMPS:FHP:1,2015-11-01T13:06:00Z,28.1530,-82.8010,-0.03,1111122 
COMPS,ioos:station:USF.COMPS:FHP:1,2015-11-01T13:12:00Z,28.1530,-82.8010,-0.04,1111122 
COMPS,ioos:station:USF.COMPS:FHP:1,2015-11-01T13:18:00Z,28.1530,-82.8010,-0.051,1111122 
COMPS,ioos:station:USF.COMPS:FHP:1,2015-11-01T13:24:00Z,28.1530,-82.8010,-0.054,1111122 
COMPS,ioos:station:USF.COMPS:FHP:1,2015-11-01T13:30:00Z,28.1530,-82.8010,-0.063,1111122 
COMPS,ioos:station:USF.COMPS:FHP:1,2015-11-01T13:36:00Z,28.1530,-82.8010,-0.07,1111122 
COMPS,ioos:station:USF.COMPS:FHP:1,2015-11-01T13:42:00Z,28.1530,-82.8010,-0.07,1111122 
COMPS,ioos:station:USF.COMPS:FHP:1,2015-11-01T13:48:00Z,28.1530,-82.8010,-0.085,1111122 
COMPS,ioos:station:USF.COMPS:FHP:1,2015-11-01T13:54:00Z,28.1530,-82.8010,-0.094,1111122 
COMPS,ioos:station:USF.COMPS:FHP:1,2015-11-01T14:00:00Z,28.1530,-82.8010,-0.1,1111122 
COMPS,ioos:station:USF.COMPS:FHP:1,2015-11-01T14:06:00Z,28.1530,-82.8010,-0.106,1111122 
COMPS,ioos:station:USF.COMPS:FHP:1,2015-11-01T14:12:00Z,28.1530,-82.8010,-0.114,1111122 
COMPS,ioos:station:USF.COMPS:FHP:1,2015-11-01T14:18:00Z,28.1530,-82.8010,-0.118,1111122 
COMPS,ioos:station:USF.COMPS:FHP:1,2015-11-01T14:24:00Z,28.1530,-82.8010,-0.122,1111122 
COMPS,ioos:station:USF.COMPS:FHP:1,2015-11-01T14:30:00Z,28.1530,-82.8010,-0.12,1111122 
COMPS,ioos:station:USF.COMPS:FHP:1,2015-11-01T14:36:00Z,28.1530,-82.8010,-0.121,1111122 
COMPS,ioos:station:USF.COMPS:FHP:1,2015-11-01T14:42:00Z,28.1530,-82.8010,-0.114,1111122 
COMPS,ioos:station:USF.COMPS:FHP:1,2015-11-01T14:48:00Z,28.1530,-82.8010,-0.108,1111122 
COMPS,ioos:station:USF.COMPS:FHP:1,2015-11-01T14:54:00Z,28.1530,-82.8010,-0.104,1111122 
COMPS,ioos:station:USF.COMPS:FHP:1,2015-11-01T15:00:00Z,28.1530,-82.8010,-0.091,1111122 
COMPS,ioos:station:USF.COMPS:FHP:1,2015-11-01T15:06:00Z,28.1530,-82.8010,-0.088,1111122 
COMPS,ioos:station:USF.COMPS:FHP:1,2015-11-01T15:12:00Z,28.1530,-82.8010,-0.077,1111122 
COMPS,ioos:station:USF.COMPS:FHP:1,2015-11-01T15:18:00Z,28.1530,-82.8010,-0.073,1111122 
COMPS,ioos:station:USF.COMPS:FHP:1,2015-11-01T15:24:00Z,28.1530,-82.8010,-0.061,1111122 
COMPS,ioos:station:USF.COMPS:FHP:1,2015-11-01T15:30:00Z,28.1530,-82.8010,-0.054,1111122 
COMPS,ioos:station:USF.COMPS:FHP:1,2015-11-01T15:36:00Z,28.1530,-82.8010,-0.039,1111122 
COMPS,ioos:station:USF.COMPS:FHP:1,2015-11-01T15:42:00Z,28.1530,-82.8010,-0.029,1111122 
COMPS,ioos:station:USF.COMPS:FHP:1,2015-11-01T15:48:00Z,28.1530,-82.8010,-0.017,1111122 
COMPS,ioos:station:USF.COMPS:FHP:1,2015-11-01T15:54:00Z,28.1530,-82.8010,-0.005,1111122 
COMPS,ioos:station:USF.COMPS:FHP:1,2015-11-01T16:00:00Z,28.1530,-82.8010,0.004,1111122 
COMPS,ioos:station:USF.COMPS:FHP:1,2015-11-01T16:06:00Z,28.1530,-82.8010,0.017,1111122 
COMPS,ioos:station:USF.COMPS:FHP:1,2015-11-01T16:12:00Z,28.1530,-82.8010,0.027,1111122 
COMPS,ioos:station:USF.COMPS:FHP:1,2015-11-01T16:18:00Z,28.1530,-82.8010,0.036,1111122 
COMPS,ioos:station:USF.COMPS:FHP:1,2015-11-01T16:24:00Z,28.1530,-82.8010,0.053,1111122 
COMPS,ioos:station:USF.COMPS:FHP:1,2015-11-01T16:30:00Z,28.1530,-82.8010,0.063,1111122 
COMPS,ioos:station:USF.COMPS:FHP:1,2015-11-01T16:36:00Z,28.1530,-82.8010,0.078,1111122 
COMPS,ioos:station:USF.COMPS:FHP:1,2015-11-01T16:42:00Z,28.1530,-82.8010,0.093,1111122 
COMPS,ioos:station:USF.COMPS:FHP:1,2015-11-01T16:48:00Z,28.1530,-82.8010,0.107,1111122 
COMPS,ioos:station:USF.COMPS:FHP:1,2015-11-01T16:54:00Z,28.1530,-82.8010,0.122,1111122 
COMPS,ioos:station:USF.COMPS:FHP:1,2015-11-01T17:00:00Z,28.1530,-82.8010,0.137,1111122 
COMPS,ioos:station:USF.COMPS:FHP:1,2015-11-01T17:06:00Z,28.1530,-82.8010,0.146,1111122 
COMPS,ioos:station:USF.COMPS:FHP:1,2015-11-01T17:12:00Z,28.1530,-82.8010,0.156,1111122 
COMPS,ioos:station:USF.COMPS:FHP:1,2015-11-01T17:18:00Z,28.1530,-82.8010,0.17,1111122 
COMPS,ioos:station:USF.COMPS:FHP:1,2015-11-01T17:24:00Z,28.1530,-82.8010,0.187,1111122 
COMPS,ioos:station:USF.COMPS:FHP:1,2015-11-01T17:30:00Z,28.1530,-82.8010,0.2,1111122 
COMPS,ioos:station:USF.COMPS:FHP:1,2015-11-01T17:36:00Z,28.1530,-82.8010,0.215,1111122 
COMPS,ioos:station:USF.COMPS:FHP:1,2015-11-01T17:42:00Z,28.1530,-82.8010,0.228,1111122 
COMPS,ioos:station:USF.COMPS:FHP:1,2015-11-01T17:48:00Z,28.1530,-82.8010,0.241,1111122 
COMPS,ioos:station:USF.COMPS:FHP:1,2015-11-01T17:54:00Z,28.1530,-82.8010,0.259,1111122 
COMPS,ioos:station:USF.COMPS:FHP:1,2015-11-01T18:00:00Z,28.1530,-82.8010,0.268,1111122 
COMPS,ioos:station:USF.COMPS:FHP:1,2015-11-01T18:06:00Z,28.1530,-82.8010,0.287,1111122 
COMPS,ioos:station:USF.COMPS:FHP:1,2015-11-01T18:12:00Z,28.1530,-82.8010,0.294,1111122 
COMPS,ioos:station:USF.COMPS:FHP:1,2015-11-01T18:18:00Z,28.1530,-82.8010,0.309,1111122 
COMPS,ioos:station:USF.COMPS:FHP:1,2015-11-01T18:24:00Z,28.1530,-82.8010,0.318,1111122 
COMPS,ioos:station:USF.COMPS:FHP:1,2015-11-01T18:30:00Z,28.1530,-82.8010,0.333,1111122 
COMPS,ioos:station:USF.COMPS:FHP:1,2015-11-01T18:36:00Z,28.1530,-82.8010,0.348,1111122 
COMPS,ioos:station:USF.COMPS:FHP:1,2015-11-01T18:42:00Z,28.1530,-82.8010,0.368,1111122 
COMPS,ioos:station:USF.COMPS:FHP:1,2015-11-01T18:48:00Z,28.1530,-82.8010,0.378,1111122 
COMPS,ioos:station:USF.COMPS:FHP:1,2015-11-01T18:54:00Z,28.1530,-82.8010,0.392,1111122 
COMPS,ioos:station:USF.COMPS:FHP:1,2015-11-01T19:00:00Z,28.1530,-82.8010,0.403,1111122 
COMPS,ioos:station:USF.COMPS:FHP:1,2015-11-01T19:06:00Z,28.1530,-82.8010,0.415,1111122 
COMPS,ioos:station:USF.COMPS:FHP:1,2015-11-01T19:12:00Z,28.1530,-82.8010,0.421,1111122 
COMPS,ioos:station:USF.COMPS:FHP:1,2015-11-01T19:18:00Z,28.1530,-82.8010,0.434,1111122 
COMPS,ioos:station:USF.COMPS:FHP:1,2015-11-01T19:24:00Z,28.1530,-82.8010,0.444,1111122 
COMPS,ioos:station:USF.COMPS:FHP:1,2015-11-01T19:30:00Z,28.1530,-82.8010,0.452,1111122 
COMPS,ioos:station:USF.COMPS:FHP:1,2015-11-01T19:36:00Z,28.1530,-82.8010,0.453,1111122 
COMPS,ioos:station:USF.COMPS:FHP:1,2015-11-01T19:42:00Z,28.1530,-82.8010,0.465,1111122 
COMPS,ioos:station:USF.COMPS:FHP:1,2015-11-01T19:48:00Z,28.1530,-82.8010,0.466,1111122 
COMPS,ioos:station:USF.COMPS:FHP:1,2015-11-01T19:54:00Z,28.1530,-82.8010,0.479,1111122 
COMPS,ioos:station:USF.COMPS:FHP:1,2015-11-01T20:00:00Z,28.1530,-82.8010,0.488,1111122 
COMPS,ioos:station:USF.COMPS:FHP:1,2015-11-01T20:06:00Z,28.1530,-82.8010,0.498,1111122 
COMPS,ioos:station:USF.COMPS:FHP:1,2015-11-01T20:12:00Z,28.1530,-82.8010,0.51,1111122 
COMPS,ioos:station:USF.COMPS:FHP:1,2015-11-01T20:18:00Z,28.1530,-82.8010,0.519,1111122 
COMPS,ioos:station:USF.COMPS:FHP:1,2015-11-01T20:24:00Z,28.1530,-82.8010,0.521,1111122 
COMPS,ioos:station:USF.COMPS:FHP:1,2015-11-01T20:30:00Z,28.1530,-82.8010,0.528,1111122 
COMPS,ioos:station:USF.COMPS:FHP:1,2015-11-01T20:36:00Z,28.1530,-82.8010,0.532,1111122 
COMPS,ioos:station:USF.COMPS:FHP:1,2015-11-01T20:42:00Z,28.1530,-82.8010,0.533,1111122 
COMPS,ioos:station:USF.COMPS:FHP:1,2015-11-01T20:48:00Z,28.1530,-82.8010,0.532,1111122 
COMPS,ioos:station:USF.COMPS:FHP:1,2015-11-01T20:54:00Z,28.1530,-82.8010,0.527,1111122 
COMPS,ioos:station:USF.COMPS:FHP:1,2015-11-01T21:00:00Z,28.1530,-82.8010,0.527,1111122 
COMPS,ioos:station:USF.COMPS:FHP:1,2015-11-01T21:06:00Z,28.1530,-82.8010,0.531,1111122 
COMPS,ioos:station:USF.COMPS:FHP:1,2015-11-01T21:12:00Z,28.1530,-82.8010,0.527,1111122 
COMPS,ioos:station:USF.COMPS:FHP:1,2015-11-01T21:18:00Z,28.1530,-82.8010,0.527,1111122 
COMPS,ioos:station:USF.COMPS:FHP:1,2015-11-01T21:24:00Z,28.1530,-82.8010,0.522,1111122 
COMPS,ioos:station:USF.COMPS:FHP:1,2015-11-01T21:30:00Z,28.1530,-82.8010,0.53,1111122 
COMPS,ioos:station:USF.COMPS:FHP:1,2015-11-01T21:36:00Z,28.1530,-82.8010,0.534,1111122 
COMPS,ioos:station:USF.COMPS:FHP:1,2015-11-01T21:42:00Z,28.1530,-82.8010,0.527,1111122 
COMPS,ioos:station:USF.COMPS:FHP:1,2015-11-01T21:48:00Z,28.1530,-82.8010,0.526,1111122 
COMPS,ioos:station:USF.COMPS:FHP:1,2015-11-01T21:54:00Z,28.1530,-82.8010,0.519,1111122 
COMPS,ioos:station:USF.COMPS:FHP:1,2015-11-01T22:00:00Z,28.1530,-82.8010,0.515,1111122 
COMPS,ioos:station:USF.COMPS:FHP:1,2015-11-01T22:06:00Z,28.1530,-82.8010,0.506,1111122 
COMPS,ioos:station:USF.COMPS:FHP:1,2015-11-01T22:12:00Z,28.1530,-82.8010,0.503,1111122 
COMPS,ioos:station:USF.COMPS:FHP:1,2015-11-01T22:18:00Z,28.1530,-82.8010,0.495,1111122 
COMPS,ioos:station:USF.COMPS:FHP:1,2015-11-01T22:24:00Z,28.1530,-82.8010,0.482,1111122 
COMPS,ioos:station:USF.COMPS:FHP:1,2015-11-01T22:30:00Z,28.1530,-82.8010,0.482,1111122 
COMPS,ioos:station:USF.COMPS:FHP:1,2015-11-01T22:36:00Z,28.1530,-82.8010,0.472,1111122 
COMPS,ioos:station:USF.COMPS:FHP:1,2015-11-01T22:42:00Z,28.1530,-82.8010,0.472,1111122 
COMPS,ioos:station:USF.COMPS:FHP:1,2015-11-01T22:48:00Z,28.1530,-82.8010,0.469,1111122 
COMPS,ioos:station:USF.COMPS:FHP:1,2015-11-01T22:54:00Z,28.1530,-82.8010,0.462,1111122 
COMPS,ioos:station:USF.COMPS:FHP:1,2015-11-01T23:00:00Z,28.1530,-82.8010,0.456,1111122 
COMPS,ioos:station:USF.COMPS:FHP:1,2015-11-01T23:06:00Z,28.1530,-82.8010,0.452,1111122 
COMPS,ioos:station:USF.COMPS:FHP:1,2015-11-01T23:12:00Z,28.1530,-82.8010,0.444,1111122 
COMPS,ioos:station:USF.COMPS:FHP:1,2015-11-01T23:18:00Z,28.1530,-82.8010,0.435,1111122 
COMPS,ioos:station:USF.COMPS:FHP:1,2015-11-01T23:24:00Z,28.1530,-82.8010,0.426,1111122 
COMPS,ioos:station:USF.COMPS:FHP:1,2015-11-01T23:30:00Z,28.1530,-82.8010,0.412,1111122 
COMPS,ioos:station:USF.COMPS:FHP:1,2015-11-01T23:36:00Z,28.1530,-82.8010,0.398,1111122 
COMPS,ioos:station:USF.COMPS:FHP:1,2015-11-01T23:42:00Z,28.1530,-82.8010,0.386,1111122 
COMPS,ioos:station:USF.COMPS:FHP:1,2015-11-01T23:48:00Z,28.1530,-82.8010,0.382,1111122 
COMPS,ioos:station:USF.COMPS:FHP:1,2015-11-01T23:54:00Z,28.1530,-82.8010,0.377,1111122 
COMPS,ioos:station:USF.COMPS:FHP:1,2015-11-02T00:00:00Z,28.1530,-82.8010,0.377,1111122 
COMPS,ioos:station:USF.COMPS:FHP:1,2015-11-02T00:06:00Z,28.1530,-82.8010,0.374,1111122 
COMPS,ioos:station:USF.COMPS:FHP:1,2015-11-02T00:12:00Z,28.1530,-82.8010,0.368,1111122 
COMPS,ioos:station:USF.COMPS:FHP:1,2015-11-02T00:18:00Z,28.1530,-82.8010,0.37,1111122 
COMPS,ioos:station:USF.COMPS:FHP:1,2015-11-02T00:24:00Z,28.1530,-82.8010,0.365,1111122 
COMPS,ioos:station:USF.COMPS:FHP:1,2015-11-02T00:30:00Z,28.1530,-82.8010,0.367,1111122 
COMPS,ioos:station:USF.COMPS:FHP:1,2015-11-02T00:36:00Z,28.1530,-82.8010,0.36,1111122 
COMPS,ioos:station:USF.COMPS:FHP:1,2015-11-02T00:42:00Z,28.1530,-82.8010,0.363,1111122 
COMPS,ioos:station:USF.COMPS:FHP:1,2015-11-02T00:48:00Z,28.1530,-82.8010,0.351,1111122 
COMPS,ioos:station:USF.COMPS:FHP:1,2015-11-02T00:54:00Z,28.1530,-82.8010,0.362,1111122 
COMPS,ioos:station:USF.COMPS:FHP:1,2015-11-02T01:00:00Z,28.1530,-82.8010,0.353,1111122 
COMPS,ioos:station:USF.COMPS:FHP:1,2015-11-02T01:06:00Z,28.1530,-82.8010,0.353,1111122 
COMPS,ioos:station:USF.COMPS:FHP:1,2015-11-02T01:12:00Z,28.1530,-82.8010,0.36,1111122 
COMPS,ioos:station:USF.COMPS:FHP:1,2015-11-02T01:18:00Z,28.1530,-82.8010,0.35,1111122 
COMPS,ioos:station:USF.COMPS:FHP:1,2015-11-02T01:24:00Z,28.1530,-82.8010,0.348,1111122 
COMPS,ioos:station:USF.COMPS:FHP:1,2015-11-02T01:36:00Z,28.1530,-82.8010,0.347,1111122 
COMPS,ioos:station:USF.COMPS:FHP:1,2015-11-02T01:42:00Z,28.1530,-82.8010,0.35,1111122 
COMPS,ioos:station:USF.COMPS:FHP:1,2015-11-02T01:48:00Z,28.1530,-82.8010,0.35,1111122 
COMPS,ioos:station:USF.COMPS:FHP:1,2015-11-02T01:54:00Z,28.1530,-82.8010,0.346,1111122 
COMPS,ioos:station:USF.COMPS:FHP:1,2015-11-02T02:00:00Z,28.1530,-82.8010,0.35,1111122 
COMPS,ioos:station:USF.COMPS:FHP:1,2015-11-02T02:06:00Z,28.1530,-82.8010,0.349,1111122 
COMPS,ioos:station:USF.COMPS:FHP:1,2015-11-02T02:12:00Z,28.1530,-82.8010,0.345,1111122 
COMPS,ioos:station:USF.COMPS:FHP:1,2015-11-02T02:18:00Z,28.1530,-82.8010,0.344,1111122 
COMPS,ioos:station:USF.COMPS:FHP:1,2015-11-02T02:24:00Z,28.1530,-82.8010,0.347,1111122 
COMPS,ioos:station:USF.COMPS:FHP:1,2015-11-02T02:42:00Z,28.1530,-82.8010,0.348,1111122 
COMPS,ioos:station:USF.COMPS:FHP:1,2015-11-02T02:48:00Z,28.1530,-82.8010,0.357,1111122 
COMPS,ioos:station:USF.COMPS:FHP:1,2015-11-02T02:54:00Z,28.1530,-82.8010,0.356,1111122 
COMPS,ioos:station:USF.COMPS:FHP:1,2015-11-02T03:00:00Z,28.1530,-82.8010,0.37,1111122 
COMPS,ioos:station:USF.COMPS:FHP:1,2015-11-02T03:12:00Z,28.1530,-82.8010,0.382,1111122 
COMPS,ioos:station:USF.COMPS:FHP:1,2015-11-02T03:18:00Z,28.1530,-82.8010,0.391,1111122 
COMPS,ioos:station:USF.COMPS:FHP:1,2015-11-02T03:24:00Z,28.1530,-82.8010,0.4,1111122 
COMPS,ioos:station:USF.COMPS:FHP:1,2015-11-02T03:30:00Z,28.1530,-82.8010,0.41,1111122 
COMPS,ioos:station:USF.COMPS:FHP:1,2015-11-02T03:36:00Z,28.1530,-82.8010,0.413,1111122 
COMPS,ioos:station:USF.COMPS:FHP:1,2015-11-02T03:42:00Z,28.1530,-82.8010,0.422,1111122 
COMPS,ioos:station:USF.COMPS:FHP:1,2015-11-02T03:48:00Z,28.1530,-82.8010,0.433,1111122 
COMPS,ioos:station:USF.COMPS:FHP:1,2015-11-02T03:54:00Z,28.1530,-82.8010,0.441,1111122 
COMPS,ioos:station:USF.COMPS:FHP:1,2015-11-02T04:00:00Z,28.1530,-82.8010,0.452,1111122 
COMPS,ioos:station:USF.COMPS:FHP:1,2015-11-02T04:06:00Z,28.1530,-82.8010,0.452,1111122 
COMPS,ioos:station:USF.COMPS:FHP:1,2015-11-02T04:12:00Z,28.1530,-82.8010,0.458,1111122 
COMPS,ioos:station:USF.COMPS:FHP:1,2015-11-02T04:18:00Z,28.1530,-82.8010,0.46,1111122 
COMPS,ioos:station:USF.COMPS:FHP:1,2015-11-02T04:24:00Z,28.1530,-82.8010,0.467,1111122 
COMPS,ioos:station:USF.COMPS:FHP:1,2015-11-02T04:30:00Z,28.1530,-82.8010,0.479,1111122 
COMPS,ioos:station:USF.COMPS:FHP:1,2015-11-02T04:36:00Z,28.1530,-82.8010,0.486,1111122 
COMPS,ioos:station:USF.COMPS:FHP:1,2015-11-02T04:42:00Z,28.1530,-82.8010,0.499,1111122 
COMPS,ioos:station:USF.COMPS:FHP:1,2015-11-02T04:48:00Z,28.1530,-82.8010,0.504,1111122 
COMPS,ioos:station:USF.COMPS:FHP:1,2015-11-02T04:54:00Z,28.1530,-82.8010,0.521,1111122 
COMPS,ioos:station:USF.COMPS:FHP:1,2015-11-02T05:00:00Z,28.1530,-82.8010,0.532,1111122 
COMPS,ioos:station:USF.COMPS:FHP:1,2015-11-02T05:06:00Z,28.1530,-82.8010,0.538,1111122 
COMPS,ioos:station:USF.COMPS:FHP:1,2015-11-02T05:12:00Z,28.1530,-82.8010,0.55,1111122 
COMPS,ioos:station:USF.COMPS:FHP:1,2015-11-02T05:18:00Z,28.1530,-82.8010,0.558,1111122 
COMPS,ioos:station:USF.COMPS:FHP:1,2015-11-02T05:24:00Z,28.1530,-82.8010,0.568,1111122 
COMPS,ioos:station:USF.COMPS:FHP:1,2015-11-02T05:30:00Z,28.1530,-82.8010,0.581,1111122 
COMPS,ioos:station:USF.COMPS:FHP:1,2015-11-02T05:36:00Z,28.1530,-82.8010,0.588,1111122 
COMPS,ioos:station:USF.COMPS:FHP:1,2015-11-02T05:42:00Z,28.1530,-82.8010,0.595,1111122 
COMPS,ioos:station:USF.COMPS:FHP:1,2015-11-02T05:48:00Z,28.1530,-82.8010,0.602,1111122 
COMPS,ioos:station:USF.COMPS:FHP:1,2015-11-02T05:54:00Z,28.1530,-82.8010,0.618,1111122 
COMPS,ioos:station:USF.COMPS:FHP:1,2015-11-02T06:00:00Z,28.1530,-82.8010,0.631,1111122 
COMPS,ioos:station:USF.COMPS:FHP:1,2015-11-02T06:06:00Z,28.1530,-82.8010,0.639,1111122 
COMPS,ioos:station:USF.COMPS:FHP:1,2015-11-02T06:12:00Z,28.1530,-82.8010,0.642,1111122 
COMPS,ioos:station:USF.COMPS:FHP:1,2015-11-02T06:18:00Z,28.1530,-82.8010,0.649,1111122 
COMPS,ioos:station:USF.COMPS:FHP:1,2015-11-02T06:24:00Z,28.1530,-82.8010,0.651,1111122 
COMPS,ioos:station:USF.COMPS:FHP:1,2015-11-02T06:30:00Z,28.1530,-82.8010,0.656,1111122 
COMPS,ioos:station:USF.COMPS:FHP:1,2015-11-02T06:36:00Z,28.1530,-82.8010,0.656,1111122 
COMPS,ioos:station:USF.COMPS:FHP:1,2015-11-02T06:42:00Z,28.1530,-82.8010,0.666,1111122 
COMPS,ioos:station:USF.COMPS:FHP:1,2015-11-02T06:48:00Z,28.1530,-82.8010,0.666,1111122 
COMPS,ioos:station:USF.COMPS:FHP:1,2015-11-02T06:54:00Z,28.1530,-82.8010,0.665,1111122 
COMPS,ioos:station:USF.COMPS:FHP:1,2015-11-02T07:00:00Z,28.1530,-82.8010,0.67,1111122 
COMPS,ioos:station:USF.COMPS:FHP:1,2015-11-02T07:06:00Z,28.1530,-82.8010,0.678,1111122 
COMPS,ioos:station:USF.COMPS:FHP:1,2015-11-02T07:12:00Z,28.1530,-82.8010,0.689,1111122 
COMPS,ioos:station:USF.COMPS:FHP:1,2015-11-02T07:18:00Z,28.1530,-82.8010,0.69,1111122 
COMPS,ioos:station:USF.COMPS:FHP:1,2015-11-02T07:24:00Z,28.1530,-82.8010,0.703,1111122 
COMPS,ioos:station:USF.COMPS:FHP:1,2015-11-02T07:30:00Z,28.1530,-82.8010,0.7,1111122 
COMPS,ioos:station:USF.COMPS:FHP:1,2015-11-02T07:36:00Z,28.1530,-82.8010,0.708,1111122 
COMPS,ioos:station:USF.COMPS:FHP:1,2015-11-02T07:42:00Z,28.1530,-82.8010,0.696,1111122 
COMPS,ioos:station:USF.COMPS:FHP:1,2015-11-02T07:48:00Z,28.1530,-82.8010,0.704,1111122 
COMPS,ioos:station:USF.COMPS:FHP:1,2015-11-02T07:54:00Z,28.1530,-82.8010,0.69,1111122 
COMPS,ioos:station:USF.COMPS:FHP:1,2015-11-02T08:00:00Z,28.1530,-82.8010,0.691,1111122 
COMPS,ioos:station:USF.COMPS:FHP:1,2015-11-02T08:06:00Z,28.1530,-82.8010,0.688,1111122 
COMPS,ioos:station:USF.COMPS:FHP:1,2015-11-02T08:12:00Z,28.1530,-82.8010,0.696,1111122 
COMPS,ioos:station:USF.COMPS:FHP:1,2015-11-02T08:18:00Z,28.1530,-82.8010,0.696,1111122 
COMPS,ioos:station:USF.COMPS:FHP:1,2015-11-02T08:24:00Z,28.1530,-82.8010,0.696,1111122 
COMPS,ioos:station:USF.COMPS:FHP:1,2015-11-02T08:30:00Z,28.1530,-82.8010,0.688,1111122 
COMPS,ioos:station:USF.COMPS:FHP:1,2015-11-02T08:36:00Z,28.1530,-82.8010,0.688,1111122 
COMPS,ioos:station:USF.COMPS:FHP:1,2015-11-02T08:42:00Z,28.1530,-82.8010,0.682,1111122 
COMPS,ioos:station:USF.COMPS:FHP:1,2015-11-02T08:48:00Z,28.1530,-82.8010,0.667,1111122 
COMPS,ioos:station:USF.COMPS:FHP:1,2015-11-02T08:54:00Z,28.1530,-82.8010,0.663,1111122 
COMPS,ioos:station:USF.COMPS:FHP:1,2015-11-02T09:00:00Z,28.1530,-82.8010,0.645,1111122 
COMPS,ioos:station:USF.COMPS:FHP:1,2015-11-02T09:06:00Z,28.1530,-82.8010,0.647,1111122 
COMPS,ioos:station:USF.COMPS:FHP:1,2015-11-02T09:12:00Z,28.1530,-82.8010,0.638,1111122 
COMPS,ioos:station:USF.COMPS:FHP:1,2015-11-02T09:18:00Z,28.1530,-82.8010,0.635,1111122 
COMPS,ioos:station:USF.COMPS:FHP:1,2015-11-02T09:24:00Z,28.1530,-82.8010,0.622,1111122 
COMPS,ioos:station:USF.COMPS:FHP:1,2015-11-02T09:30:00Z,28.1530,-82.8010,0.606,1111122 
COMPS,ioos:station:USF.COMPS:FHP:1,2015-11-02T09:36:00Z,28.1530,-82.8010,0.599,1111122 
COMPS,ioos:station:USF.COMPS:FHP:1,2015-11-02T09:42:00Z,28.1530,-82.8010,0.598,1111122 
COMPS,ioos:station:USF.COMPS:FHP:1,2015-11-02T09:48:00Z,28.1530,-82.8010,0.598,1111122 
COMPS,ioos:station:USF.COMPS:FHP:1,2015-11-02T09:54:00Z,28.1530,-82.8010,0.592,1111122 
COMPS,ioos:station:USF.COMPS:FHP:1,2015-11-02T10:00:00Z,28.1530,-82.8010,0.579,1111122 
COMPS,ioos:station:USF.COMPS:FHP:1,2015-11-02T10:06:00Z,28.1530,-82.8010,0.56,1111122 
COMPS,ioos:station:USF.COMPS:FHP:1,2015-11-02T10:12:00Z,28.1530,-82.8010,0.553,1111122 
COMPS,ioos:station:USF.COMPS:FHP:1,2015-11-02T10:18:00Z,28.1530,-82.8010,0.539,1111122 
COMPS,ioos:station:USF.COMPS:FHP:1,2015-11-02T10:24:00Z,28.1530,-82.8010,0.528,1111122 